Location: Milton
(43.5183°N, 79.8775°W)
Time: 15:34:52
(UTC+00:00)

NOAA 15 - Pass Details

Date: 02 April 2023
Orbit: 796 x 811 km, 98.6° (Epoch: 29 May)

Event Time Altitude Azimuth Distance (km) Brightness Sun altitude
Rises 01:06:57 0° 195° (SSW) 3,318 7.7 -15.0°
Reaches altitude 10° 01:09:36 10° 207° (SSW) 2,391 7.1 -15.4°
Maximum altitude 01:14:06 28° 265° (W) 1,485 6.7 -16.2°
Drops below altitude 10° 01:18:37 10° 324° (NW) 2,400 8.0 -16.9°
Sets 01:21:18 0° 336° (NNW) 3,334 8.6 -17.4°
